When you browse on this site, cookies collect data to enhance your experience and personalize the content and advertising you see.
Visit our Privacy Policy to learn more. By continuing to use the site, you agree to this use of cookies and data.
  • în România
  • Lista ţărilor
  • Pe 7 zile
  • Temperatura apei
  • Hartă satelitară
  • Meteo pe hartă
  • Widget-uri
  • user-avatar
    Intrare

    Meteo pe oră la Sumgait

    Astăzi, 24 Iunie, Luni

    Timp Temperatura Precipitaţii Vânt Presiune Umiditate
    00:00 +30°C° 0 mm 1 m/s 737 mmHg 43%
    01:00 +30°C° 0 mm 1 m/s 737 mmHg 43%
    02:00 +29°C° 0 mm 1 m/s 737 mmHg 44%
    03:00 +29°C° 0 mm 1 m/s 737 mmHg 46%
    04:00 +29°C° 0 mm 1 m/s 737 mmHg 44%
    05:00 +30°C° 0 mm 1 m/s 737 mmHg 41%
    06:00 +28°C° 0 mm 0 m/s 737 mmHg 38%
    07:00 +32°C° 0 mm 1 m/s 738 mmHg 35%
    08:00 +34°C° 0 mm 2 m/s 738 mmHg 32%
    09:00 +36°C° 0 mm 3 m/s 738 mmHg 30%
    10:00 +37°C° 0 mm 3 m/s 738 mmHg 25%
    11:00 +38°C° 0 mm 4 m/s 738 mmHg 20%
    12:00 +41°C° 0 mm 5 m/s 738 mmHg 16%
    13:00 +41°C° 0 mm 5 m/s 737 mmHg 15%
    14:00 +40°C° 0 mm 5 m/s 737 mmHg 14%
    15:00 +40°C° 0 mm 5 m/s 737 mmHg 13%
    16:00 +40°C° 0 mm 5 m/s 736 mmHg 13%
    17:00 +38°C° 0 mm 4 m/s 736 mmHg 12%
    18:00 +38°C° 0 mm 4 m/s 736 mmHg 12%
    19:00 +37°C° 0 mm 3 m/s 736 mmHg 14%
    20:00 +35°C° 0 mm 2 m/s 737 mmHg 16%
    21:00 +33°C° 0 mm 1 m/s 737 mmHg 18%
    22:00 +32°C° 0 mm 1 m/s 737 mmHg 20%
    23:00 +32°C° 0 mm 2 m/s 737 mmHg 22%

    Mâine, 25 Iunie, Marţi

    Timp Temperatura Precipitaţii Vânt Presiune Umiditate
    00:00 +31°C° 0 mm 2 m/s 737 mmHg 24%
    01:00 +31°C° 0 mm 3 m/s 737 mmHg 25%
    02:00 +30°C° 0 mm 3 m/s 737 mmHg 25%
    03:00 +30°C° 0 mm 4 m/s 736 mmHg 25%
    04:00 +30°C° 0 mm 4 m/s 737 mmHg 25%
    05:00 +32°C° 0 mm 5 m/s 737 mmHg 26%
    06:00 +33°C° 0 mm 5 m/s 737 mmHg 26%
    07:00 +34°C° 0 mm 6 m/s 737 mmHg 26%
    08:00 +35°C° 0 mm 6 m/s 738 mmHg 26%
    09:00 +36°C° 0 mm 7 m/s 738 mmHg 25%
    10:00 +38°C° 0 mm 7 m/s 738 mmHg 24%
    11:00 +38°C° 0 mm 6 m/s 738 mmHg 24%
    12:00 +39°C° 0 mm 6 m/s 738 mmHg 23%
    13:00 +39°C° 0 mm 6 m/s 737 mmHg 22%
    14:00 +39°C° 0 mm 6 m/s 737 mmHg 22%
    15:00 +39°C° 0 mm 6 m/s 737 mmHg 22%
    16:00 +38°C° 0 mm 6 m/s 737 mmHg 23%
    17:00 +36°C° 0 mm 7 m/s 737 mmHg 25%
    18:00 +35°C° 0 mm 7 m/s 736 mmHg 27%
    19:00 +34°C° 0 mm 6 m/s 737 mmHg 29%
    20:00 +34°C° 0 mm 5 m/s 737 mmHg 31%
    21:00 +33°C° 0 mm 5 m/s 738 mmHg 33%
    22:00 +32°C° 0 mm 4 m/s 738 mmHg 36%
    23:00 +32°C° 0 mm 4 m/s 737 mmHg 38%

    Poimâine, 26 Iunie, Miercuri

    Timp Temperatura Precipitaţii Vânt Presiune Umiditate
    00:00 +30°C° 0 mm 4 m/s 737 mmHg 41%
    01:00 +30°C° 0 mm 4 m/s 737 mmHg 43%
    02:00 +29°C° 0 mm 3 m/s 737 mmHg 45%
    03:00 +29°C° 0 mm 3 m/s 737 mmHg 47%
    04:00 +29°C° 0 mm 4 m/s 737 mmHg 45%
    05:00 +30°C° 0 mm 4 m/s 738 mmHg 44%
    06:00 +32°C° 0 mm 5 m/s 738 mmHg 43%
    07:00 +33°C° 0 mm 7 m/s 738 mmHg 40%
    08:00 +34°C° 0 mm 8 m/s 738 mmHg 36%
    09:00 +37°C° 0 mm 10 m/s 739 mmHg 33%
    10:00 +37°C° 0 mm 9 m/s 739 mmHg 32%
    11:00 +38°C° 0 mm 9 m/s 739 mmHg 32%
    12:00 +39°C° 0 mm 9 m/s 739 mmHg 31%
    13:00 +38°C° 0.1 mm 9 m/s 738 mmHg 31%
    14:00 +38°C° 0.1 mm 10 m/s 738 mmHg 31%
    15:00 +38°C° 0.1 mm 11 m/s 738 mmHg 31%
    16:00 +37°C° 0.1 mm 11 m/s 738 mmHg 32%
    17:00 +36°C° 0.1 mm 11 m/s 738 mmHg 32%
    18:00 +34°C° 0.1 mm 12 m/s 737 mmHg 33%
    19:00 +33°C° 0 mm 12 m/s 738 mmHg 35%
    20:00 +32°C° 0 mm 12 m/s 738 mmHg 36%
    21:00 +31°C° 0 mm 12 m/s 738 mmHg 38%
    22:00 +31°C° 0 mm 11 m/s 738 mmHg 40%
    23:00 +29°C° 0 mm 11 m/s 737 mmHg 42%

    27 Iunie, Joi

    Timp Temperatura Precipitaţii Vânt Presiune Umiditate
    00:00 +29°C° 0 mm 11 m/s 737 mmHg 43%
    01:00 +29°C° 0 mm 10 m/s 737 mmHg 44%
    02:00 +28°C° 0 mm 10 m/s 737 mmHg 45%
    03:00 +28°C° 0 mm 9 m/s 737 mmHg 46%
    04:00 +28°C° 0 mm 9 m/s 737 mmHg 46%
    05:00 +28°C° 0 mm 9 m/s 737 mmHg 45%
    06:00 +28°C° 0 mm 9 m/s 737 mmHg 45%
    07:00 +29°C° 0 mm 8 m/s 737 mmHg 43%
    08:00 +31°C° 0 mm 8 m/s 737 mmHg 41%
    09:00 +31°C° 0 mm 8 m/s 737 mmHg 39%
    10:00 +32°C° 0 mm 9 m/s 737 mmHg 36%
    11:00 +32°C° 0 mm 9 m/s 737 mmHg 33%
    12:00 +33°C° 0 mm 10 m/s 737 mmHg 30%
    13:00 +33°C° 0 mm 10 m/s 737 mmHg 29%
    14:00 +32°C° 0 mm 10 m/s 736 mmHg 29%
    15:00 +32°C° 0 mm 10 m/s 736 mmHg 29%
    16:00 +31°C° 0 mm 10 m/s 736 mmHg 30%
    17:00 +29°C° 0 mm 10 m/s 736 mmHg 32%
    18:00 +28°C° 0 mm 9 m/s 736 mmHg 33%
    19:00 +28°C° 0 mm 9 m/s 736 mmHg 34%
    20:00 +28°C° 0 mm 8 m/s 736 mmHg 34%
    21:00 +27°C° 0 mm 8 m/s 736 mmHg 35%
    22:00 +27°C° 0 mm 7 m/s 736 mmHg 36%
    23:00 +27°C° 0 mm 6 m/s 736 mmHg 37%

    28 Iunie, Vineri

    Timp Temperatura Precipitaţii Vânt Presiune Umiditate
    00:00 +27°C° 0 mm 5 m/s 736 mmHg 37%
    01:00 +26°C° 0 mm 5 m/s 735 mmHg 40%
    02:00 +26°C° 0 mm 6 m/s 735 mmHg 42%
    03:00 +24°C° 0 mm 6 m/s 735 mmHg 44%
    04:00 +25°C° 0 mm 5 m/s 735 mmHg 43%
    05:00 +26°C° 0 mm 5 m/s 735 mmHg 42%
    06:00 +26°C° 0 mm 4 m/s 735 mmHg 42%
    07:00 +27°C° 0 mm 4 m/s 735 mmHg 38%
    08:00 +28°C° 0 mm 4 m/s 735 mmHg 34%
    09:00 +29°C° 0 mm 4 m/s 735 mmHg 30%
    10:00 +30°C° 0 mm 3 m/s 734 mmHg 28%
    11:00 +31°C° 0 mm 3 m/s 734 mmHg 27%
    12:00 +31°C° 0 mm 2 m/s 734 mmHg 25%
    13:00 +33°C° 0 mm 3 m/s 733 mmHg 25%
    14:00 +33°C° 0 mm 4 m/s 733 mmHg 26%
    15:00 +33°C° 0 mm 5 m/s 732 mmHg 27%
    16:00 +33°C° 0 mm 5 m/s 732 mmHg 29%
    17:00 +32°C° 0 mm 4 m/s 732 mmHg 31%
    18:00 +30°C° 0 mm 4 m/s 731 mmHg 33%
    19:00 +29°C° 0 mm 3 m/s 731 mmHg 35%
    20:00 +29°C° 0 mm 2 m/s 732 mmHg 36%
    21:00 +28°C° 0 mm 1 m/s 732 mmHg 38%
    22:00 +27°C° 0 mm 1 m/s 731 mmHg 38%
    23:00 +27°C° 0 mm 1 m/s 731 mmHg 39%

    29 Iunie, Sâmbătă

    Timp Temperatura Precipitaţii Vânt Presiune Umiditate
    00:00 +27°C° 0 mm 1 m/s 730 mmHg 40%
    01:00 +26°C° 0 mm 1 m/s 730 mmHg 39%
    02:00 +26°C° 0 mm 2 m/s 730 mmHg 39%
    03:00 +26°C° 0 mm 2 m/s 730 mmHg 38%
    04:00 +27°C° 0 mm 2 m/s 730 mmHg 37%
    05:00 +27°C° 0 mm 2 m/s 730 mmHg 35%
    06:00 +28°C° 0 mm 2 m/s 730 mmHg 33%
    07:00 +29°C° 0 mm 3 m/s 730 mmHg 32%
    08:00 +30°C° 0 mm 3 m/s 730 mmHg 30%
    09:00 +33°C° 0 mm 3 m/s 731 mmHg 29%
    10:00 +33°C° 0 mm 5 m/s 731 mmHg 30%
    11:00 +33°C° 0 mm 6 m/s 731 mmHg 31%
    12:00 +34°C° 0 mm 7 m/s 731 mmHg 32%
    13:00 +33°C° 0 mm 8 m/s 731 mmHg 36%
    14:00 +32°C° 0 mm 9 m/s 731 mmHg 39%
    15:00 +32°C° 0 mm 10 m/s 731 mmHg 42%
    16:00 +31°C° 0 mm 10 m/s 731 mmHg 44%
    17:00 +31°C° 0 mm 10 m/s 731 mmHg 46%
    18:00 +29°C° 0 mm 10 m/s 731 mmHg 48%
    19:00 +29°C° 0 mm 10 m/s 731 mmHg 47%
    20:00 +28°C° 0 mm 9 m/s 732 mmHg 46%
    21:00 +28°C° 0 mm 8 m/s 732 mmHg 45%
    22:00 +28°C° 0 mm 7 m/s 732 mmHg 45%
    23:00 +28°C° 0 mm 6 m/s 732 mmHg 46%
    Arată mai mult